User: anonymous   Login
Location: Unspecified
(0.0000°N, 0.0000°E)
Time: 07:05:39
(UTC+00:00)
Language:

FORMOSAT 3C - Orbit

View from above orbital plane
View from above orbital plane
View from above satellite
View from above satellite

Ground track
Ground track

The orbit data is extracted from the following two-line orbital elements,

1 29049U 06011C   17349.93166016 +.00000053 +00000-0 +37413-4 0  9998
2 29049 072.0205 254.7719 0035665 193.3754 166.6441 14.28610244608985
Epoch (UTC): 15 December 2017 22:21:35
Eccentricity: 0.0035665
inclination: 72.0205°
perigee height: 771 km
apogee height: 822 km
right ascension of ascending node: 254.7719°
argument of perigee: 193.3754°
revolutions per day: 14.28610244
mean anomaly at epoch: 166.6441°
orbit number at epoch: 60898

The dashed part of the orbit path shows where the satellite is in the earth's shadow,  

DLR